"Pseudo-MPEC" for SWN0015

Created 2024 May 2 13:22:21 UT using Find_Orb

Click here for an explanation of pseudo-MPECs

 
 Astrometry: 
     SWN0015*KB2024 04 11lKWci3]Mq#0^Chk7c`N-dI(^D?HO8i^Astrometry:W!^j^1;bvyQ20
     SWN0015 KB2024 04 11_jv'+$io(q-L70redacted;!)SUBnfCR0(=KDmJ)1nYmy7\I?-0EQ20
     SWN0015 KB2024 04 11D@NNUpBAmNQuEV?mZXO[Kclick(MaQlIb8m\luhere0HE,C94Oh4Q20
     SWN0015 KB2024 04 11+b'fd9oewMOsOkew'XL8Zrforxexplanation#egR-!8o\$Zus4:Q20

Station data:
(Q20) Swan Reach Imaging, Glenalta  (S34.544078 E139.570080)  Australia/SA.

Orbital elements:  SWN0015
   Perihelion 2024 Apr 3.57184 +/- 51.1 TT = 13:43:26 (JD 2460404.07184)
Epoch 2024 Apr 12.0 TT = JDT 2460412.5   Earth MOID: 0.2490      AutoNEOCP
M   4.10399734 +/- 25               (J2000 ecliptic)
n   0.48693846 +/- 0.24             Peri.  350.86871 +/- 55
a   1.60012285 +/- 0.525            Node   203.76347 +/- 24
e   0.2190363 +/- 0.168             Incl.    6.40219 +/- 5.2
P   2.02/739.30d           H 21.29  G  0.15   U 11.8  SR
q 1.24963777 +/- 0.285    Q 1.95060793 +/- 1.93
From 4 observations 2024 Apr. 11 (21.1 min); mean residual 0".72
Residuals in arcseconds: 
240411 Q20  .25-  1.1-    240411 Q20  .07+  .64+    
240411 Q20  .35+  1.3+    240411 Q20  .17-  .87-    

Ephemerides (geocentric):
Date (UTC) HH   RA             Dec           delta  r     elong  mag " sig PA
---- --------  ------------   ------------  ------ ------ -----  --- --------
2024 05 02 13  13 13 28.954   -00 39 16.70  .28104 1.2668 154.1 20.1  52d  95
2024 05 02 14  13 13 31.093   -00 38 38.43  .28115 1.2668 154.1 20.1  52d  95
2024 05 02 15  13 13 33.236   -00 38 00.23  .28126 1.2669 154.0 20.1  52d  95
2024 05 02 16  13 13 35.381   -00 37 22.11  .28137 1.2669 154.0 20.1  52d  95
2024 05 02 17  13 13 37.528   -00 36 44.07  .28148 1.2669 154.0 20.1  52d  95
2024 05 02 18  13 13 39.679   -00 36 06.10  .28159 1.2670 153.9 20.1  52d  95
2024 05 02 19  13 13 41.831   -00 35 28.21  .28170 1.2670 153.9 20.1  53d  95
2024 05 02 20  13 13 43.986   -00 34 50.39  .28181 1.2671 153.9 20.1  53d  95
2024 05 02 21  13 13 46.144   -00 34 12.66  .28192 1.2671 153.8 20.1  53d  95
2024 05 02 22  13 13 48.305   -00 33 34.99  .28203 1.2672 153.8 20.1  53d  95
2024 05 02 23  13 13 50.467   -00 32 57.41  .28214 1.2672 153.7 20.1  53d  96
2024 05 03 00  13 13 52.633   -00 32 19.90  .28225 1.2673 153.7 20.1  53d  96
2024 05 03 01  13 13 54.801   -00 31 42.47  .28236 1.2673 153.7 20.1  53d  96
2024 05 03 02  13 13 56.971   -00 31 05.12  .28248 1.2674 153.6 20.1  53d  96
2024 05 03 03  13 13 59.145   -00 30 27.84  .28259 1.2674 153.6 20.1  53d  96
2024 05 03 04  13 14 01.320   -00 29 50.64  .28270 1.2675 153.6 20.1  53d  96
2024 05 03 05  13 14 03.498   -00 29 13.52  .28281 1.2675 153.5 20.1  53d  96
2024 05 03 06  13 14 05.679   -00 28 36.48  .28292 1.2676 153.5 20.1  53d  96
2024 05 03 07  13 14 07.863   -00 27 59.51  .28304 1.2676 153.4 20.1  53d  96
2024 05 03 08  13 14 10.049   -00 27 22.62  .28315 1.2677 153.4 20.1  53d  96
2024 05 03 09  13 14 12.237   -00 26 45.80  .28326 1.2677 153.4 20.1  53d  96
2024 05 03 10  13 14 14.428   -00 26 09.07  .28337 1.2678 153.3 20.1  53d  96
2024 05 03 11  13 14 16.622   -00 25 32.41  .28349 1.2678 153.3 20.1  53d  96
2024 05 03 12  13 14 18.818   -00 24 55.83  .28360 1.2679 153.3 20.1  53d  96
2024 05 03 13  13 14 21.017   -00 24 19.32  .28371 1.2679 153.2 20.1  53d  96
2024 05 03 14  13 14 23.218   -00 23 42.90  .28383 1.2680 153.2 20.1  53d  96
2024 05 03 15  13 14 25.422   -00 23 06.55  .28394 1.2680 153.1 20.1  54d  96
2024 05 03 16  13 14 27.629   -00 22 30.27  .28406 1.2681 153.1 20.1  54d  96
2024 05 03 17  13 14 29.838   -00 21 54.08  .28417 1.2681 153.1 20.1  54d  96
2024 05 03 18  13 14 32.050   -00 21 17.96  .28428 1.2682 153.0 20.1  54d  96
2024 05 03 19  13 14 34.264   -00 20 41.92  .28440 1.2682 153.0 20.1  54d  96
2024 05 03 20  13 14 36.481   -00 20 05.96  .28451 1.2683 153.0 20.1  54d  96
2024 05 03 21  13 14 38.700   -00 19 30.07  .28463 1.2683 152.9 20.1  54d  96
2024 05 03 22  13 14 40.922   -00 18 54.27  .28474 1.2684 152.9 20.1  54d  96
2024 05 03 23  13 14 43.147   -00 18 18.54  .28486 1.2684 152.8 20.1  54d  96
2024 05 04 00  13 14 45.374   -00 17 42.88  .28497 1.2685 152.8 20.1  54d  96
2024 05 04 01  13 14 47.604   -00 17 07.31  .28509 1.2685 152.8 20.1  54d  96
2024 05 04 02  13 14 49.836   -00 16 31.81  .28520 1.2686 152.7 20.1  54d  96
2024 05 04 03  13 14 52.071   -00 15 56.39  .28532 1.2686 152.7 20.1  54d  96
2024 05 04 04  13 14 54.309   -00 15 21.05  .28544 1.2687 152.7 20.1  54d  96
2024 05 04 05  13 14 56.549   -00 14 45.79  .28555 1.2687 152.6 20.1  54d  96
2024 05 04 06  13 14 58.792   -00 14 10.60  .28567 1.2688 152.6 20.1  54d  96
2024 05 04 07  13 15 01.037   -00 13 35.50  .28579 1.2688 152.5 20.1  54d  96
2024 05 04 08  13 15 03.285   -00 13 00.47  .28590 1.2689 152.5 20.1  54d  96
2024 05 04 09  13 15 05.535   -00 12 25.52  .28602 1.2689 152.5 20.1  54d  96
2024 05 04 10  13 15 07.788   -00 11 50.64  .28614 1.2690 152.4 20.1  54d  96
2024 05 04 11  13 15 10.044   -00 11 15.85  .28625 1.2690 152.4 20.1  54d  96
2024 05 04 12  13 15 12.303   -00 10 41.13  .28637 1.2691 152.4 20.1  54d  96